Location: Dal�� Lhota
(48.7500°N, 14.0167°E)
Time: 17:23:04
(UTC+00:00)

S-56A Canister/Altair - Pass Details

Date: 01 August 2021
Orbit: 632 x 2500 km, 38.9° (Epoch: 19 September)

Event Time Altitude Azimuth Distance (km) Brightness Sun altitude
Rises 19:17:03 0° 279° (W) 6,174 13.5 -5.7°
Reaches altitude 10° 19:21:38 10° 272° (W) 5,162 12.7 -6.3°
Maximum altitude 19:34:03 34° 216° (SW) 3,289 10.7 -8.0°
Drops below altitude 10° 19:44:21 10° 158° (SSE) 4,258 10.8 -9.3°
Enters shadow 19:45:26 - 154° (SSE) 4,481 10.9 -9.4°
